Year,Month,Day,Hour,Minute,Value (Times are PST for temperature in C)
2018,03,17,00,00,4.50
2018,03,17,00,01,4.50
2018,03,17,00,02,4.50
2018,03,17,00,03,4.40
2018,03,17,00,04,4.50
2018,03,17,00,05,4.50
2018,03,17,00,06,4.50
2018,03,17,00,07,4.50
2018,03,17,00,08,4.50
2018,03,17,00,09,4.50
2018,03,17,00,10,4.40
2018,03,17,00,11,4.40
2018,03,17,00,12,4.40
2018,03,17,00,13,4.40
2018,03,17,00,14,4.40
2018,03,17,00,15,4.40
2018,03,17,00,16,4.40
2018,03,17,00,17,4.40
2018,03,17,00,18,4.40
2018,03,17,00,19,4.40
2018,03,17,00,20,4.30
2018,03,17,00,21,4.30
2018,03,17,00,22,4.30
2018,03,17,00,23,4.30
2018,03,17,00,24,4.30
2018,03,17,00,25,4.30
2018,03,17,00,26,4.30
2018,03,17,00,27,4.30
2018,03,17,00,28,4.30
2018,03,17,00,29,4.30
2018,03,17,00,30,4.30
2018,03,17,00,31,4.30
2018,03,17,00,32,4.30
2018,03,17,00,33,4.30
2018,03,17,00,34,4.30
2018,03,17,00,35,4.30
2018,03,17,00,36,4.30
2018,03,17,00,37,4.30
2018,03,17,00,38,4.30
2018,03,17,00,39,4.30
2018,03,17,00,40,4.30
2018,03,17,00,41,4.20
2018,03,17,00,42,4.20
2018,03,17,00,43,4.20
2018,03,17,00,44,4.20
2018,03,17,00,45,4.20
2018,03,17,00,46,4.20
2018,03,17,00,47,4.20
2018,03,17,00,48,4.20
2018,03,17,00,49,4.20
2018,03,17,00,50,4.20
2018,03,17,00,51,4.20
2018,03,17,00,52,4.20
2018,03,17,00,53,4.20
2018,03,17,00,54,4.20
2018,03,17,00,55,4.10
2018,03,17,00,56,4.10
2018,03,17,00,57,4.10
2018,03,17,00,58,4.10
2018,03,17,00,59,4.10
2018,03,17,01,00,4.10
2018,03,17,01,01,4.10
2018,03,17,01,02,4.10
2018,03,17,01,03,4.10
2018,03,17,01,04,4.10
2018,03,17,01,05,4.10
2018,03,17,01,06,4.00
2018,03,17,01,07,4.00
2018,03,17,01,08,4.00
2018,03,17,01,09,3.90
2018,03,17,01,10,3.90
2018,03,17,01,11,3.90
2018,03,17,01,12,3.90
2018,03,17,01,13,3.90
2018,03,17,01,14,3.90
2018,03,17,01,15,3.90
2018,03,17,01,16,3.90
2018,03,17,01,17,3.90
2018,03,17,01,18,3.90
2018,03,17,01,19,3.90
2018,03,17,01,20,3.90
2018,03,17,01,21,3.90
2018,03,17,01,22,3.80
2018,03,17,01,23,3.80
2018,03,17,01,24,3.80
2018,03,17,01,25,3.80
2018,03,17,01,26,3.80
2018,03,17,01,27,3.80
2018,03,17,01,28,3.80
2018,03,17,01,29,3.80
2018,03,17,01,30,3.70
2018,03,17,01,31,3.70
2018,03,17,01,32,3.70
2018,03,17,01,33,3.70
2018,03,17,01,34,3.70
2018,03,17,01,35,3.70
2018,03,17,01,36,3.70
2018,03,17,01,37,3.70
2018,03,17,01,38,3.70
2018,03,17,01,39,3.70
2018,03,17,01,40,3.70
2018,03,17,01,41,3.70
2018,03,17,01,42,3.70
2018,03,17,01,43,3.70
2018,03,17,01,44,3.70
2018,03,17,01,45,3.60
2018,03,17,01,46,3.60
2018,03,17,01,47,3.60
2018,03,17,01,48,3.50
2018,03,17,01,49,3.50
2018,03,17,01,50,3.50
2018,03,17,01,51,3.40
2018,03,17,01,52,3.40
2018,03,17,01,53,3.40
2018,03,17,01,54,3.40
2018,03,17,01,55,3.40
2018,03,17,01,56,3.30
2018,03,17,01,57,3.30
2018,03,17,01,58,3.30
2018,03,17,01,59,3.30
2018,03,17,02,00,3.30
2018,03,17,02,01,3.20
2018,03,17,02,02,3.20
2018,03,17,02,03,3.20
2018,03,17,02,04,3.20
2018,03,17,02,05,3.10
2018,03,17,02,06,3.10
2018,03,17,02,07,3.10
2018,03,17,02,08,3.10
2018,03,17,02,09,3.00
2018,03,17,02,10,3.00
2018,03,17,02,11,3.00
2018,03,17,02,12,3.00
2018,03,17,02,13,3.00
2018,03,17,02,14,3.00
2018,03,17,02,15,3.00
2018,03,17,02,16,3.00
2018,03,17,02,17,3.00
2018,03,17,02,18,3.00
2018,03,17,02,19,3.00
2018,03,17,02,20,3.00
2018,03,17,02,21,3.00
2018,03,17,02,22,3.00
2018,03,17,02,23,2.90
2018,03,17,02,24,2.90
2018,03,17,02,25,2.90
2018,03,17,02,26,2.90
2018,03,17,02,27,2.90
2018,03,17,02,28,2.90
2018,03,17,02,29,2.90
2018,03,17,02,30,2.90
2018,03,17,02,31,2.90
2018,03,17,02,32,2.90
2018,03,17,02,33,2.90
2018,03,17,02,34,2.90
2018,03,17,02,35,2.90
2018,03,17,02,36,2.90
2018,03,17,02,37,2.90
2018,03,17,02,38,2.90
2018,03,17,02,39,2.90
2018,03,17,02,40,2.90
2018,03,17,02,41,2.90
2018,03,17,02,42,2.90
2018,03,17,02,43,2.90
2018,03,17,02,44,2.90
2018,03,17,02,45,2.90
2018,03,17,02,46,2.90
2018,03,17,02,47,2.90
2018,03,17,02,48,2.80
2018,03,17,02,49,2.80
2018,03,17,02,50,2.80
2018,03,17,02,51,2.80
2018,03,17,02,52,2.80
2018,03,17,02,53,2.80
2018,03,17,02,54,2.80
2018,03,17,02,55,2.80
2018,03,17,02,56,2.70
2018,03,17,02,57,2.70
2018,03,17,02,58,2.70
2018,03,17,02,59,2.70
2018,03,17,03,00,2.70
2018,03,17,03,01,2.70
2018,03,17,03,02,2.70
2018,03,17,03,03,2.70
2018,03,17,03,04,2.70
2018,03,17,03,05,2.60
2018,03,17,03,06,2.60
2018,03,17,03,07,2.60
2018,03,17,03,08,2.60
2018,03,17,03,09,2.60
2018,03,17,03,10,2.60
2018,03,17,03,11,2.60
2018,03,17,03,12,2.60
2018,03,17,03,13,2.60
2018,03,17,03,14,2.60
2018,03,17,03,15,2.60
2018,03,17,03,16,2.50
2018,03,17,03,17,2.50
2018,03,17,03,18,2.50
2018,03,17,03,19,2.50
2018,03,17,03,20,2.50
2018,03,17,03,21,2.50
2018,03,17,03,22,2.40
2018,03,17,03,23,2.40
2018,03,17,03,24,2.40
2018,03,17,03,25,2.40
2018,03,17,03,26,2.40
2018,03,17,03,27,2.40
2018,03,17,03,28,2.40
2018,03,17,03,29,2.40
2018,03,17,03,30,2.40
2018,03,17,03,31,2.40
2018,03,17,03,32,2.40
2018,03,17,03,33,2.40
2018,03,17,03,34,2.40
2018,03,17,03,35,2.40
2018,03,17,03,36,2.40
2018,03,17,03,37,2.40
2018,03,17,03,38,2.30
2018,03,17,03,39,2.30
2018,03,17,03,40,2.30
2018,03,17,03,41,2.30
2018,03,17,03,42,2.30
2018,03,17,03,43,2.30
2018,03,17,03,44,2.20
2018,03,17,03,45,2.20
2018,03,17,03,46,2.20
2018,03,17,03,47,2.20
2018,03,17,03,48,2.10
2018,03,17,03,49,2.10
2018,03,17,03,50,2.10
2018,03,17,03,51,2.00
2018,03,17,03,52,2.00
2018,03,17,03,53,2.00
2018,03,17,03,54,2.00
2018,03,17,03,55,1.90
2018,03,17,03,56,1.90
2018,03,17,03,57,1.90
2018,03,17,03,58,1.90
2018,03,17,03,59,1.90
2018,03,17,04,00,1.90
2018,03,17,04,01,1.90
2018,03,17,04,02,1.90
2018,03,17,04,03,1.80
2018,03,17,04,04,1.80
2018,03,17,04,05,1.80
2018,03,17,04,06,1.80
2018,03,17,04,07,1.80
2018,03,17,04,08,1.70
2018,03,17,04,09,1.70
2018,03,17,04,10,1.80
2018,03,17,04,11,1.80
2018,03,17,04,12,1.80
2018,03,17,04,13,1.80
2018,03,17,04,14,1.80
2018,03,17,04,15,1.80
2018,03,17,04,16,1.80
2018,03,17,04,17,1.90
2018,03,17,04,18,1.90
2018,03,17,04,19,1.80
2018,03,17,04,20,1.80
2018,03,17,04,21,1.80
2018,03,17,04,22,1.80
2018,03,17,04,23,1.80
2018,03,17,04,24,1.80
2018,03,17,04,25,1.80
2018,03,17,04,26,1.80
2018,03,17,04,27,1.80
2018,03,17,04,28,1.80
2018,03,17,04,29,1.80
2018,03,17,04,30,1.80
2018,03,17,04,31,1.80
2018,03,17,04,32,1.70
2018,03,17,04,33,1.70
2018,03,17,04,34,1.70
2018,03,17,04,35,1.70
2018,03,17,04,36,1.70
2018,03,17,04,37,1.70
2018,03,17,04,38,1.70
2018,03,17,04,39,1.70
2018,03,17,04,40,1.80
2018,03,17,04,41,1.80
2018,03,17,04,42,1.80
2018,03,17,04,43,1.80
2018,03,17,04,44,1.80
2018,03,17,04,45,1.80
2018,03,17,04,46,1.80
2018,03,17,04,47,1.80
2018,03,17,04,48,1.80
2018,03,17,04,49,1.80
2018,03,17,04,50,1.80
2018,03,17,04,51,1.80
2018,03,17,04,52,1.80
2018,03,17,04,53,1.80
2018,03,17,04,54,1.80
2018,03,17,04,55,1.80
2018,03,17,04,56,1.80
2018,03,17,04,57,1.80
2018,03,17,04,58,1.80
2018,03,17,04,59,1.80
2018,03,17,05,00,1.70
2018,03,17,05,01,1.70
2018,03,17,05,02,1.70
2018,03,17,05,03,1.70
2018,03,17,05,04,1.70
2018,03,17,05,05,1.70
2018,03,17,05,06,1.70
2018,03,17,05,07,1.70
2018,03,17,05,08,1.70
2018,03,17,05,09,1.70
2018,03,17,05,10,1.70
2018,03,17,05,11,1.70
2018,03,17,05,12,1.70
2018,03,17,05,13,1.70
2018,03,17,05,14,1.70
2018,03,17,05,15,1.70
2018,03,17,05,16,1.70
2018,03,17,05,17,1.70
2018,03,17,05,18,1.70
2018,03,17,05,19,1.70
2018,03,17,05,20,1.70
2018,03,17,05,21,1.70
2018,03,17,05,22,1.70
2018,03,17,05,23,1.70
2018,03,17,05,24,1.70
2018,03,17,05,25,1.70
2018,03,17,05,26,1.70
2018,03,17,05,27,1.70
2018,03,17,05,28,1.70
2018,03,17,05,29,1.70
2018,03,17,05,30,1.70
2018,03,17,05,31,1.70
2018,03,17,05,32,1.70
2018,03,17,05,33,1.70
2018,03,17,05,34,1.70
2018,03,17,05,35,1.70
2018,03,17,05,36,1.70
2018,03,17,05,37,1.70
2018,03,17,05,38,1.70
2018,03,17,05,39,1.70
2018,03,17,05,40,1.70
2018,03,17,05,41,1.70
2018,03,17,05,42,1.70
2018,03,17,05,43,1.70
2018,03,17,05,44,1.70
2018,03,17,05,45,1.70
2018,03,17,05,46,1.70
2018,03,17,05,47,1.70
2018,03,17,05,48,1.70
2018,03,17,05,49,1.70
2018,03,17,05,50,1.80
2018,03,17,05,51,1.80
2018,03,17,05,52,1.80
2018,03,17,05,53,1.70
2018,03,17,05,54,1.70
2018,03,17,05,55,1.70
2018,03,17,05,56,1.80
2018,03,17,05,57,1.80
2018,03,17,05,58,1.80
2018,03,17,05,59,1.80
2018,03,17,06,00,1.80
2018,03,17,06,01,1.70
2018,03,17,06,02,1.70
2018,03,17,06,03,1.70
2018,03,17,06,04,1.70
2018,03,17,06,05,1.70
2018,03,17,06,06,1.70
2018,03,17,06,07,1.70
2018,03,17,06,08,1.70
2018,03,17,06,09,1.80
2018,03,17,06,10,1.80
2018,03,17,06,11,1.80
2018,03,17,06,12,1.80
2018,03,17,06,13,1.80
2018,03,17,06,14,1.80
2018,03,17,06,15,1.80
2018,03,17,06,16,1.80
2018,03,17,06,17,1.80
2018,03,17,06,18,1.80
2018,03,17,06,19,1.80
2018,03,17,06,20,1.80
2018,03,17,06,21,1.80
2018,03,17,06,22,1.80
2018,03,17,06,23,1.80
2018,03,17,06,24,1.80
2018,03,17,06,25,1.80
2018,03,17,06,26,1.80
2018,03,17,06,27,1.80
2018,03,17,06,28,1.80
2018,03,17,06,29,1.80
2018,03,17,06,30,1.80
2018,03,17,06,31,1.80
2018,03,17,06,32,1.80
2018,03,17,06,33,1.80
2018,03,17,06,34,1.80
2018,03,17,06,35,1.80
2018,03,17,06,36,1.80
2018,03,17,06,37,1.80
2018,03,17,06,38,1.80
2018,03,17,06,39,1.80
2018,03,17,06,40,1.80
2018,03,17,06,41,1.80
2018,03,17,06,42,1.80
2018,03,17,06,43,1.80
2018,03,17,06,44,1.80
2018,03,17,06,45,1.80
2018,03,17,06,46,1.80
2018,03,17,06,47,1.80
2018,03,17,06,48,1.80
2018,03,17,06,49,1.80
2018,03,17,06,50,1.80
2018,03,17,06,51,1.80
2018,03,17,06,52,1.80
2018,03,17,06,53,1.80
2018,03,17,06,54,1.80
2018,03,17,06,55,1.80
2018,03,17,06,56,1.80
2018,03,17,06,57,1.80
2018,03,17,06,58,1.80
2018,03,17,06,59,1.80
2018,03,17,07,00,1.80
2018,03,17,07,01,1.80
2018,03,17,07,02,1.80
2018,03,17,07,03,1.90
2018,03,17,07,04,1.90
2018,03,17,07,05,1.90
2018,03,17,07,06,1.90
2018,03,17,07,07,1.90
2018,03,17,07,08,1.90
2018,03,17,07,09,1.90
2018,03,17,07,10,1.90
2018,03,17,07,11,1.90
2018,03,17,07,12,1.90
2018,03,17,07,13,1.90
2018,03,17,07,14,1.90
2018,03,17,07,15,1.90
2018,03,17,07,16,1.90
2018,03,17,07,17,1.90
2018,03,17,07,18,1.90
2018,03,17,07,19,1.90
2018,03,17,07,20,1.90
2018,03,17,07,21,1.90
2018,03,17,07,22,1.90
2018,03,17,07,23,1.90
2018,03,17,07,24,1.90
2018,03,17,07,25,1.90
2018,03,17,07,26,1.90
2018,03,17,07,27,1.90
2018,03,17,07,28,1.90
2018,03,17,07,29,1.90
2018,03,17,07,30,1.90
2018,03,17,07,31,1.90
2018,03,17,07,32,1.90
2018,03,17,07,33,2.00
2018,03,17,07,34,2.00
2018,03,17,07,35,2.00
2018,03,17,07,36,2.00
2018,03,17,07,37,2.00
2018,03,17,07,38,2.00
2018,03,17,07,39,2.10
2018,03,17,07,40,2.10
2018,03,17,07,41,2.10
2018,03,17,07,42,2.10
2018,03,17,07,43,2.10
2018,03,17,07,44,2.10
2018,03,17,07,45,2.10
2018,03,17,07,46,2.10
2018,03,17,07,47,2.10
2018,03,17,07,48,2.10
2018,03,17,07,49,2.10
2018,03,17,07,50,2.10
2018,03,17,07,51,2.10
2018,03,17,07,52,2.10
2018,03,17,07,53,2.10
2018,03,17,07,54,2.10
2018,03,17,07,55,2.10
2018,03,17,07,56,2.10
2018,03,17,07,57,2.10
2018,03,17,07,58,2.10
2018,03,17,07,59,2.10
2018,03,17,08,00,2.10
2018,03,17,08,01,2.10
2018,03,17,08,02,2.10
2018,03,17,08,03,2.10
2018,03,17,08,04,2.20
2018,03,17,08,05,2.20
2018,03,17,08,06,2.20
2018,03,17,08,07,2.20
2018,03,17,08,08,2.20
2018,03,17,08,09,2.20
2018,03,17,08,10,2.20
2018,03,17,08,11,2.30
2018,03,17,08,12,2.30
2018,03,17,08,13,2.30
2018,03,17,08,14,2.30
2018,03,17,08,15,2.30
2018,03,17,08,16,2.30
2018,03,17,08,17,2.30
2018,03,17,08,18,2.40
2018,03,17,08,19,2.40
2018,03,17,08,20,2.40
2018,03,17,08,21,2.50
2018,03,17,08,22,2.50
2018,03,17,08,23,2.60
2018,03,17,08,24,2.60
2018,03,17,08,25,2.60
2018,03,17,08,26,2.70
2018,03,17,08,27,2.70
2018,03,17,08,28,2.70
2018,03,17,08,29,2.70
2018,03,17,08,30,2.70
2018,03,17,08,31,2.70
2018,03,17,08,32,2.70
2018,03,17,08,33,2.70
2018,03,17,08,34,2.70
2018,03,17,08,35,2.70
2018,03,17,08,36,2.70
2018,03,17,08,37,2.70
2018,03,17,08,38,2.70
2018,03,17,08,39,2.80
2018,03,17,08,40,2.80
2018,03,17,08,41,2.80
2018,03,17,08,42,2.80
2018,03,17,08,43,2.80
2018,03,17,08,44,2.80
2018,03,17,08,45,2.90
2018,03,17,08,46,2.90
2018,03,17,08,47,2.90
2018,03,17,08,48,2.90
2018,03,17,08,49,2.90
2018,03,17,08,50,3.00
2018,03,17,08,51,3.00
2018,03,17,08,52,3.10
2018,03,17,08,53,3.10
2018,03,17,08,54,3.10
2018,03,17,08,55,3.20
2018,03,17,08,56,3.20
2018,03,17,08,57,3.20
2018,03,17,08,58,3.20
2018,03,17,08,59,3.30
2018,03,17,09,00,3.30
2018,03,17,09,01,3.30
2018,03,17,09,02,3.30
2018,03,17,09,03,3.40
2018,03,17,09,04,3.40
2018,03,17,09,05,3.50
2018,03,17,09,06,3.50
2018,03,17,09,07,3.50
2018,03,17,09,08,3.60
2018,03,17,09,09,3.60
2018,03,17,09,10,3.60
2018,03,17,09,11,3.60
2018,03,17,09,12,3.60
2018,03,17,09,13,3.70
2018,03,17,09,14,3.70
2018,03,17,09,15,3.70
2018,03,17,09,16,3.70
2018,03,17,09,17,3.70
2018,03,17,09,18,3.70
2018,03,17,09,19,3.80
2018,03,17,09,20,3.80
2018,03,17,09,21,3.80
2018,03,17,09,22,3.80
2018,03,17,09,23,3.80
2018,03,17,09,24,3.90
2018,03,17,09,25,3.90
2018,03,17,09,26,4.00
2018,03,17,09,27,4.00
2018,03,17,09,28,4.10
2018,03,17,09,29,4.10
2018,03,17,09,30,4.20
2018,03,17,09,31,4.20
2018,03,17,09,32,4.30
2018,03,17,09,33,4.30
2018,03,17,09,34,4.40
2018,03,17,09,35,4.40
2018,03,17,09,36,4.50
2018,03,17,09,37,4.60
2018,03,17,09,38,4.70
2018,03,17,09,39,4.80
2018,03,17,09,40,4.80
2018,03,17,09,41,4.90
2018,03,17,09,42,5.00
2018,03,17,09,43,5.00
2018,03,17,09,44,5.10
2018,03,17,09,45,5.10
2018,03,17,09,46,5.10
2018,03,17,09,47,5.10
2018,03,17,09,48,5.20
2018,03,17,09,49,5.20
2018,03,17,09,50,5.20
2018,03,17,09,51,5.20
2018,03,17,09,52,5.30
2018,03,17,09,53,5.30
2018,03,17,09,54,5.30
2018,03,17,09,55,5.30
2018,03,17,09,56,5.30
2018,03,17,09,57,5.40
2018,03,17,09,58,5.40
2018,03,17,09,59,5.40
2018,03,17,10,00,5.50
2018,03,17,10,01,5.50
2018,03,17,10,02,5.60
2018,03,17,10,03,5.60
2018,03,17,10,04,5.70
2018,03,17,10,05,5.70
2018,03,17,10,06,5.70
2018,03,17,10,07,5.80
2018,03,17,10,08,5.80
2018,03,17,10,09,5.80
2018,03,17,10,10,5.80
2018,03,17,10,11,5.90
2018,03,17,10,12,5.90
2018,03,17,10,13,5.90
2018,03,17,10,14,6.00
2018,03,17,10,15,6.00
2018,03,17,10,16,6.00
2018,03,17,10,17,6.10
2018,03,17,10,18,6.10
2018,03,17,10,19,6.20
2018,03,17,10,20,6.20
2018,03,17,10,21,6.30
2018,03,17,10,22,6.30
2018,03,17,10,23,6.30
2018,03,17,10,24,6.40
2018,03,17,10,25,6.40
2018,03,17,10,26,6.40
2018,03,17,10,27,6.40
2018,03,17,10,28,6.40
2018,03,17,10,29,6.50
2018,03,17,10,30,6.50
2018,03,17,10,31,6.50
2018,03,17,10,32,6.60
2018,03,17,10,33,6.60
2018,03,17,10,34,6.60
2018,03,17,10,35,6.60
2018,03,17,10,36,6.70
2018,03,17,10,37,6.70
2018,03,17,10,38,6.80
2018,03,17,10,39,6.80
2018,03,17,10,40,6.80
2018,03,17,10,41,6.90
2018,03,17,10,42,7.00
2018,03,17,10,43,7.00
2018,03,17,10,44,7.10
2018,03,17,10,45,7.20
2018,03,17,10,46,7.20
2018,03,17,10,47,7.30
2018,03,17,10,48,7.30
2018,03,17,10,49,7.40
2018,03,17,10,50,7.50
2018,03,17,10,51,7.60
2018,03,17,10,52,7.60
2018,03,17,10,53,7.70
2018,03,17,10,54,7.80
2018,03,17,10,55,7.80
2018,03,17,10,56,7.90
2018,03,17,10,57,8.00
2018,03,17,10,58,8.10
2018,03,17,10,59,8.20
2018,03,17,11,00,8.20
2018,03,17,11,01,8.30
2018,03,17,11,02,8.40
2018,03,17,11,03,8.50
2018,03,17,11,04,8.60
2018,03,17,11,05,8.60
2018,03,17,11,06,8.70
2018,03,17,11,07,8.80
2018,03,17,11,08,8.80
2018,03,17,11,09,8.80
2018,03,17,11,10,8.90
2018,03,17,11,11,8.90
2018,03,17,11,12,9.00
2018,03,17,11,13,9.00
2018,03,17,11,14,9.10
2018,03,17,11,15,9.10
2018,03,17,11,16,9.20
2018,03,17,11,17,9.20
2018,03,17,11,18,9.30
2018,03,17,11,19,9.30
2018,03,17,11,20,9.40
2018,03,17,11,21,9.40
2018,03,17,11,22,9.50
2018,03,17,11,23,9.50
2018,03,17,11,24,9.50
2018,03,17,11,25,9.60
2018,03,17,11,26,9.60
2018,03,17,11,27,9.60
2018,03,17,11,28,9.60
2018,03,17,11,29,9.70
2018,03,17,11,30,9.70
2018,03,17,11,31,9.80
2018,03,17,11,32,9.90
2018,03,17,11,33,9.90
2018,03,17,11,34,10.00
2018,03,17,11,35,10.10
2018,03,17,11,36,10.10
2018,03,17,11,37,10.20
2018,03,17,11,38,10.30
2018,03,17,11,39,10.30
2018,03,17,11,40,10.40
2018,03,17,11,41,10.40
2018,03,17,11,42,10.50
2018,03,17,11,43,10.60
2018,03,17,11,44,10.70
2018,03,17,11,45,10.70
2018,03,17,11,46,10.80
2018,03,17,11,47,10.90
2018,03,17,11,48,11.00
2018,03,17,11,49,11.00
2018,03,17,11,50,11.10
2018,03,17,11,51,11.10
2018,03,17,11,52,11.10
2018,03,17,11,53,11.20
2018,03,17,11,54,11.20
2018,03,17,11,55,11.30
2018,03,17,11,56,11.30
2018,03,17,11,57,11.40
2018,03,17,11,58,11.40
2018,03,17,11,59,11.40
2018,03,17,12,00,11.40
2018,03,17,12,01,11.40
2018,03,17,12,02,11.50
2018,03,17,12,03,11.50
2018,03,17,12,04,11.50
2018,03,17,12,05,11.60
2018,03,17,12,06,11.60
2018,03,17,12,07,11.60
2018,03,17,12,08,11.60
2018,03,17,12,09,11.60
2018,03,17,12,10,11.60
2018,03,17,12,11,11.50
2018,03,17,12,12,11.50
2018,03,17,12,13,11.50
2018,03,17,12,14,11.50
2018,03,17,12,15,11.60
2018,03,17,12,16,11.60
2018,03,17,12,17,11.60
2018,03,17,12,18,11.70
2018,03,17,12,19,11.70
2018,03,17,12,20,11.80
2018,03,17,12,21,11.80
2018,03,17,12,22,11.90
2018,03,17,12,23,12.00
2018,03,17,12,24,12.00
2018,03,17,12,25,12.10
2018,03,17,12,26,12.10
2018,03,17,12,27,12.20
2018,03,17,12,28,12.20
2018,03,17,12,29,12.20
2018,03,17,12,30,12.10
2018,03,17,12,31,12.10
2018,03,17,12,32,12.00
2018,03,17,12,33,12.00
2018,03,17,12,34,12.00
2018,03,17,12,35,12.00
2018,03,17,12,36,12.00
2018,03,17,12,37,12.10
2018,03,17,12,38,12.10
2018,03,17,12,39,12.10
2018,03,17,12,40,12.00
2018,03,17,12,41,12.00
2018,03,17,12,42,11.90
2018,03,17,12,43,11.90
2018,03,17,12,44,11.90
2018,03,17,12,45,11.90
2018,03,17,12,46,11.90
2018,03,17,12,47,11.90
2018,03,17,12,48,11.90
2018,03,17,12,49,11.80
2018,03,17,12,50,11.80
2018,03,17,12,51,11.80
2018,03,17,12,52,11.80
2018,03,17,12,53,11.80
2018,03,17,12,54,11.80
2018,03,17,12,55,11.80
2018,03,17,12,56,11.80
2018,03,17,12,57,11.70
2018,03,17,12,58,11.70
2018,03,17,12,59,11.60
2018,03,17,13,00,11.60
2018,03,17,13,01,11.60
2018,03,17,13,02,11.60
2018,03,17,13,03,11.60
2018,03,17,13,04,11.60
2018,03,17,13,05,11.60
2018,03,17,13,06,11.60
2018,03,17,13,07,11.70
2018,03,17,13,08,11.70
2018,03,17,13,09,11.80
2018,03,17,13,10,11.80
2018,03,17,13,11,11.80
2018,03,17,13,12,11.90
2018,03,17,13,13,11.90
2018,03,17,13,14,11.90
2018,03,17,13,15,11.90
2018,03,17,13,16,11.90
2018,03,17,13,17,11.80
2018,03,17,13,18,11.70
2018,03,17,13,19,11.70
2018,03,17,13,20,11.60
2018,03,17,13,21,11.60
2018,03,17,13,22,11.50
2018,03,17,13,23,11.50
2018,03,17,13,24,11.50
2018,03,17,13,25,11.60
2018,03,17,13,26,11.60
2018,03,17,13,27,11.60
2018,03,17,13,28,11.60
2018,03,17,13,29,11.70
2018,03,17,13,30,11.70
2018,03,17,13,31,11.70
2018,03,17,13,32,11.70
2018,03,17,13,33,11.70
2018,03,17,13,34,11.70
2018,03,17,13,35,11.70
2018,03,17,13,36,11.70
2018,03,17,13,37,11.60
2018,03,17,13,38,11.60
2018,03,17,13,39,11.60
2018,03,17,13,40,11.70
2018,03,17,13,41,11.70
2018,03,17,13,42,11.70
2018,03,17,13,43,11.80
2018,03,17,13,44,11.80
2018,03,17,13,45,11.80
2018,03,17,13,46,11.80
2018,03,17,13,47,11.80
2018,03,17,13,48,11.80
2018,03,17,13,49,11.70
2018,03,17,13,50,11.70
2018,03,17,13,51,11.70
2018,03,17,13,52,11.70
2018,03,17,13,53,11.60
2018,03,17,13,54,11.60
2018,03,17,13,55,11.60
2018,03,17,13,56,11.50
2018,03,17,13,57,11.40
2018,03,17,13,58,11.30
2018,03,17,13,59,11.10
2018,03,17,14,00,11.00
2018,03,17,14,01,11.00
2018,03,17,14,02,11.00
2018,03,17,14,03,11.10
2018,03,17,14,04,11.10
2018,03,17,14,05,11.00
2018,03,17,14,06,11.00
2018,03,17,14,07,10.90
2018,03,17,14,08,10.90
2018,03,17,14,09,10.90
2018,03,17,14,10,10.90
2018,03,17,14,11,10.80
2018,03,17,14,12,10.80
2018,03,17,14,13,10.80
2018,03,17,14,14,10.80
2018,03,17,14,15,10.80
2018,03,17,14,16,10.80
2018,03,17,14,17,10.80
2018,03,17,14,18,10.70
2018,03,17,14,19,10.70
2018,03,17,14,20,10.70
2018,03,17,14,21,10.60
2018,03,17,14,22,10.60
2018,03,17,14,23,10.50
2018,03,17,14,24,10.50
2018,03,17,14,25,10.40
2018,03,17,14,26,10.30
2018,03,17,14,27,10.30
2018,03,17,14,28,10.20
2018,03,17,14,29,10.20
2018,03,17,14,30,10.20
2018,03,17,14,31,10.20
2018,03,17,14,32,10.10
2018,03,17,14,33,10.10
2018,03,17,14,34,10.10
2018,03,17,14,35,10.00
2018,03,17,14,36,10.00
2018,03,17,14,37,9.90
2018,03,17,14,38,9.90
2018,03,17,14,39,9.80
2018,03,17,14,40,9.80
2018,03,17,14,41,9.80
2018,03,17,14,42,9.80
2018,03,17,14,43,9.70
2018,03,17,14,44,9.70
2018,03,17,14,45,9.70
2018,03,17,14,46,9.60
2018,03,17,14,47,9.60
2018,03,17,14,48,9.60
2018,03,17,14,49,9.60
2018,03,17,14,50,9.50
2018,03,17,14,51,9.50
2018,03,17,14,52,9.40
2018,03,17,14,53,9.40
2018,03,17,14,54,9.40
2018,03,17,14,55,9.40
2018,03,17,14,56,9.30
2018,03,17,14,57,9.30
2018,03,17,14,58,9.30
2018,03,17,14,59,9.30
2018,03,17,15,00,9.30
2018,03,17,15,01,9.30
2018,03,17,15,02,9.30
2018,03,17,15,03,9.30
2018,03,17,15,04,9.20
2018,03,17,15,05,9.20
2018,03,17,15,06,9.20
2018,03,17,15,07,9.20
2018,03,17,15,08,9.10
2018,03,17,15,09,9.10
2018,03,17,15,10,9.10
2018,03,17,15,11,9.10
2018,03,17,15,12,9.10
2018,03,17,15,13,9.10
2018,03,17,15,14,9.00
2018,03,17,15,15,9.00
2018,03,17,15,16,9.00
2018,03,17,15,17,9.10
2018,03,17,15,18,9.10
2018,03,17,15,19,9.10
2018,03,17,15,20,9.10
2018,03,17,15,21,9.10
2018,03,17,15,22,9.10
2018,03,17,15,23,9.10
2018,03,17,15,24,9.10
2018,03,17,15,25,9.10
2018,03,17,15,26,9.10
2018,03,17,15,27,9.10
2018,03,17,15,28,9.10
2018,03,17,15,29,9.10
2018,03,17,15,30,9.10
2018,03,17,15,31,9.10
2018,03,17,15,32,9.10
2018,03,17,15,33,9.00
2018,03,17,15,34,9.00
2018,03,17,15,35,9.00
2018,03,17,15,36,9.00
2018,03,17,15,37,9.00
2018,03,17,15,38,9.00
2018,03,17,15,39,9.00
2018,03,17,15,40,8.90
2018,03,17,15,41,8.90
2018,03,17,15,42,8.90
2018,03,17,15,43,8.90
2018,03,17,15,44,8.90
2018,03,17,15,45,8.90
2018,03,17,15,46,8.90
2018,03,17,15,47,8.80
2018,03,17,15,48,8.80
2018,03,17,15,49,8.80
2018,03,17,15,50,8.80
2018,03,17,15,51,8.80
2018,03,17,15,52,8.80
2018,03,17,15,53,8.80
2018,03,17,15,54,8.80
2018,03,17,15,55,8.80
2018,03,17,15,56,8.70
2018,03,17,15,57,8.70
2018,03,17,15,58,8.70
2018,03,17,15,59,8.70
2018,03,17,16,00,8.70
2018,03,17,16,01,8.70
2018,03,17,16,02,8.70
2018,03,17,16,03,8.70
2018,03,17,16,04,8.70
2018,03,17,16,05,8.70
2018,03,17,16,06,8.70
2018,03,17,16,07,8.70
2018,03,17,16,08,8.70
2018,03,17,16,09,8.70
2018,03,17,16,10,8.70
2018,03,17,16,11,8.70
2018,03,17,16,12,8.80
2018,03,17,16,13,8.80
2018,03,17,16,14,8.80
2018,03,17,16,15,8.70
2018,03,17,16,16,8.60
2018,03,17,16,17,8.50
2018,03,17,16,18,8.50
2018,03,17,16,19,8.40
2018,03,17,16,20,8.30
2018,03,17,16,21,8.30
2018,03,17,16,22,8.30
2018,03,17,16,23,8.20
2018,03,17,16,24,8.20
2018,03,17,16,25,8.20
2018,03,17,16,26,8.20
2018,03,17,16,27,8.20
2018,03,17,16,28,8.20
2018,03,17,16,29,8.20
2018,03,17,16,30,8.20
2018,03,17,16,31,8.20
2018,03,17,16,32,8.20
2018,03,17,16,33,8.30
2018,03,17,16,34,8.30
2018,03,17,16,35,8.30
2018,03,17,16,36,8.40
2018,03,17,16,37,8.50
2018,03,17,16,38,8.60
2018,03,17,16,39,8.80
2018,03,17,16,40,8.80
2018,03,17,16,41,8.90
2018,03,17,16,42,8.90
2018,03,17,16,43,9.00
2018,03,17,16,44,9.00
2018,03,17,16,45,9.00
2018,03,17,16,46,8.90
2018,03,17,16,47,9.00
2018,03,17,16,48,9.00
2018,03,17,16,49,9.00
2018,03,17,16,50,9.00
2018,03,17,16,51,9.10
2018,03,17,16,52,9.10
2018,03,17,16,53,9.10
2018,03,17,16,54,9.10
2018,03,17,16,55,9.10
2018,03,17,16,56,9.20
2018,03,17,16,57,9.20
2018,03,17,16,58,9.20
2018,03,17,16,59,9.20
2018,03,17,17,00,9.20
2018,03,17,17,01,9.20
2018,03,17,17,02,9.20
2018,03,17,17,03,9.20
2018,03,17,17,04,9.20
2018,03,17,17,05,9.20
2018,03,17,17,06,9.20
2018,03,17,17,07,9.20
2018,03,17,17,08,9.20
2018,03,17,17,09,9.20
2018,03,17,17,10,9.20
2018,03,17,17,11,9.20
2018,03,17,17,12,9.20
2018,03,17,17,13,9.20
2018,03,17,17,14,9.20
2018,03,17,17,15,9.20
2018,03,17,17,16,9.20
2018,03,17,17,17,9.20
2018,03,17,17,18,9.20
2018,03,17,17,19,9.20
2018,03,17,17,20,9.20
2018,03,17,17,21,9.20
2018,03,17,17,22,9.20
2018,03,17,17,23,9.20
2018,03,17,17,24,9.20
2018,03,17,17,25,9.20
2018,03,17,17,26,9.20
2018,03,17,17,27,9.20
2018,03,17,17,28,9.20
2018,03,17,17,29,9.20
2018,03,17,17,30,9.30
2018,03,17,17,31,9.30
2018,03,17,17,32,9.30
2018,03,17,17,33,9.30
2018,03,17,17,34,9.30
2018,03,17,17,35,9.30
2018,03,17,17,36,9.30
2018,03,17,17,37,9.30
2018,03,17,17,38,9.30
2018,03,17,17,39,9.30
2018,03,17,17,40,9.30
2018,03,17,17,41,9.30
2018,03,17,17,42,9.30
2018,03,17,17,43,9.30
2018,03,17,17,44,9.30
2018,03,17,17,45,9.30
2018,03,17,17,46,9.20
2018,03,17,17,47,9.20
2018,03,17,17,48,9.20
2018,03,17,17,49,9.20
2018,03,17,17,50,9.20
2018,03,17,17,51,9.20
2018,03,17,17,52,9.20
2018,03,17,17,53,9.20
2018,03,17,17,54,9.20
2018,03,17,17,55,9.20
2018,03,17,17,56,9.20
2018,03,17,17,57,9.20
2018,03,17,17,58,9.20